FLOCK 3P'-2 (43120 NORAD) Tracking and Keplerian Element Data

This shows tracking and keplerian element data for the satellite.

Feedback or suggestion? Click here.




ElementValue
Catalog43120
NameFLOCK 3P'-2
Epoch Orbit514
Epoch Day46.12970269
Epoch Year2018
RAAN108.3906
Inclination97.5505
Eccentricity0.0011308
Argument of Perigee154.6673
Mean Anonmoly205.512
Mean Motion15.22023802
Decay Rate7.43E-06
L11 43120U 18004K 18046.12970269 .00000743 00000-0 35615-4 0 9996
L22 43120 97.5505 108.3906 0011308 154.6673 205.5120 15.22023802 5145

Live tracking and technical data element details for FLOCK 3P'-2 (NORAD 43120). FLOCK 3P'-2 can be tracked NOW for your location showing map with azimuth and elevation plus other details from your city location.

Track the satellite on the map from your city or location and see movement details for azimuth, elevation, latitude, longitude, range, height, and movement on the map or in text.







IsCatalogInMostPopularTable: catalog: 43120, numindb: 119
Update: records affected: 1



GetName: 43120 FLOCK 3P'-2

Hit Count: updated at: Sun, 16 Dec 2018 11:25:38 GMT